Maun, Botswana

11:01 PM CAT on November 23, 2017 (GMT +0200)
Maun

Weather History for 68032 - April, 2014

Change the Weather History Date:

Saturday, April 5, 2014

  Actual Average Record
Temperature  
Mean Temperature 76 °F -  
Max Temperature 86 °F 85 °F - ()
Min Temperature 66 °F 60 °F - ()
Cooling Degree Days 11    
Growing Degree Days 26 (Base 50)    
Moisture  
Dew Point 63 °F    
Average Humidity 68    
Maximum Humidity 88    
Minimum Humidity 38    
Precipitation  
Precipitation 0.00 in - - ()
Sea Level Pressure  
Sea Level Pressure 30.11 in    
Wind  
Wind Speed 7 mph ()    
Max Wind Speed 18 mph    
Max Gust Speed -    
Visibility 6.1 miles    
Events      
T = Trace of Precipitation, MM = Missing Value Source: Averaged Metar Reports

Daily Weather History Graph

Daily Weather History Graph

Search for Another Location

Airport or City:

Trip Planner

Search our weather history database for the weather conditions in past years. The results will help you decide how hot, cold, wet, or windy it might be!

Date:

Astronomy

Apr. 05, 2014 Rise Set
Actual Time 6:34 AM CAT 6:23 PM CAT
Civil Twilight 6:12 AM CAT 6:45 PM CAT
Nautical Twilight 5:46 AM CAT 7:11 PM CAT
Astronomical Twilight 5:21 AM CAT 7:36 PM CAT
Moon 11:35 AM CAT (4/5) 10:59 PM CAT (4/5)
Length of Visible Light 12h 33m
Length of Day
11h 49m
Waxing Crescent, 32% of the Moon is Illuminated
Apr 5
Waxing Crescent
Apr 7
First Quarter
Apr 15
Full
Apr 22
Last Quarter
Apr 29
New

Hourly Weather History & Observations

Time (CAT) Temp. Heat Index Dew Point Humidity Pressure Visibility Wind Dir Wind Speed Gust Speed Precip Events Conditions
12:00 AM 68.0 °F - 64.4 °F 88% 30.12 in - SSE 5.8 mph - N/A   Clear
1:00 AM 68.0 °F - 64.4 °F 88% 30.12 in - South 4.6 mph - N/A   Clear
2:00 AM 68.0 °F - 64.4 °F 88% 30.09 in - South 3.5 mph - N/A   Clear
3:00 AM 68.0 °F - 64.4 °F 88% 30.09 in - SE 6.9 mph - N/A   Clear
4:00 AM 66.2 °F - 62.6 °F 88% 30.12 in - SSE 6.9 mph - N/A   Clear
5:00 AM 67 °F - 63 °F 84%  in 6 mi SSE 5.8 mph - -   Partly Cloudy
5:00 AM 66.2 °F - 62.6 °F 88% 30.12 in - SSE 5.8 mph - N/A   Clear
6:00 AM 66.2 °F - 62.6 °F 88% 30.12 in - SSE 9.2 mph - N/A   Clear
7:00 AM 66.2 °F - 62.6 °F 88% 30.12 in - SE 10.4 mph - N/A   Clear
8:00 AM 68 °F - 63 °F 78%  in 6 mi ESE 11.5 mph - -   Partly Cloudy
8:00 AM 68.0 °F - 62.6 °F 83% 30.15 in - ESE 11.5 mph - N/A   Clear
9:00 AM 75.2 °F - 64.4 °F 69% 30.18 in - ESE 11.5 mph - N/A   Clear
10:00 AM 77.0 °F - 64.4 °F 65% 30.18 in - East 18.4 mph - N/A   Clear
11:00 AM 80 °F - 63 °F 47%  in 6 mi East 16.1 mph - -   Partly Cloudy
11:00 AM 80.6 °F 81.8 °F 62.6 °F 54% 30.15 in - East 16.1 mph - N/A   Clear
12:00 PM 82.4 °F 83.9 °F 64.4 °F 54% 30.15 in - East 12.7 mph - N/A   Clear
1:00 PM 84.2 °F 85.6 °F 64.4 °F 51% 30.12 in 6.2 mi ENE 11.5 mph - N/A   Partly Cloudy
2:00 PM 85 °F - 63 °F 38%  in 6 mi NE 8.1 mph - -   Partly Cloudy
2:00 PM 86.0 °F 86.6 °F 62.6 °F 45% 30.09 in 6.2 mi NE 8.1 mph - N/A   Scattered Clouds
3:00 PM 86.0 °F 87.3 °F 64.4 °F 48% 30.06 in 6.2 mi East 8.1 mph - N/A   Scattered Clouds
4:00 PM 84.2 °F 85.0 °F 62.6 °F 48% 30.04 in 6.2 mi ENE 5.8 mph - N/A   Scattered Clouds
5:00 PM 84.2 °F 85.0 °F 62.6 °F 48% 30.04 in 6.2 mi ESE 8.1 mph - N/A   Partly Cloudy
6:00 PM 82.4 °F 83.4 °F 62.6 °F 51% 30.04 in 6.2 mi East 9.2 mph - N/A   Partly Cloudy
7:00 PM 80.6 °F 82.3 °F 64.4 °F 58% 30.06 in - SE 4.6 mph - N/A   Clear
8:00 PM 77.0 °F - 64.4 °F 65% 30.09 in - ESE 6.9 mph - N/A   Clear
9:00 PM 75.2 °F - 64.4 °F 69% 30.12 in - ESE 5.8 mph - N/A   Clear
10:00 PM 73.4 °F - 64.4 °F 73% 30.12 in - SE 5.8 mph - N/A   Clear
11:00 PM 71 °F - 63 °F 70%  in 6 mi SE 6.9 mph - -   Partly Cloudy
11:00 PM 71.6 °F - 62.6 °F 73% 30.12 in - SE 6.9 mph - N/A   Clear